Roswell, NM

1:44 AM MST on February 25, 2018 (GMT -0700)
Roswell Industrial

Weather History for KROW - May, 2013

Change the Weather History Date:

Sunday, May 12, 2013

  Actual Average Record
Temperature  
Mean Temperature 64 °F 69 °F  
Max Temperature 80 °F 84 °F 100 °F (1996)
Min Temperature 48 °F 54 °F 29 °F (1913)
Degree Days  
Heating Degree Days 1 1  
Month to date heating degree days 51 19  
Since 1 July heating degree days 2984 3277  
Cooling Degree Days 0 5  
Month to date cooling degree days 15 45  
Year to date cooling degree days 81 85  
Growing Degree Days 14 (Base 50)    
Moisture  
Dew Point 34 °F    
Average Humidity 40    
Maximum Humidity 66    
Minimum Humidity 14    
Precipitation  
Precipitation 0.00 in 0.05 in 1.75 in (1950)
Month to date precipitation 0.03 0.46  
Year to date precipitation 0.47 2.38  
Sea Level Pressure  
Sea Level Pressure 30.11 in    
Wind  
Wind Speed 8 mph (SSW)    
Max Wind Speed 17 mph    
Max Gust Speed 23 mph    
Visibility 10 miles    
Events      
T = Trace of Precipitation, MM = Missing Value Source: NWS Daily Summary

Daily Weather History Graph

Daily Weather History Graph

Search for Another Location

Airport or City:

Trip Planner

Search our weather history database for the weather conditions in past years. The results will help you decide how hot, cold, wet, or windy it might be!

Date:

Astronomy

May. 12, 2013 Rise Set
Actual Time 6:00 AM MDT 7:49 PM MDT
Civil Twilight 5:32 AM MDT 8:16 PM MDT
Nautical Twilight 5:00 AM MDT 8:49 PM MDT
Astronomical Twilight 4:25 AM MDT 9:24 PM MDT
Moon 7:59 AM MDT (5/12) 10:16 PM MDT (5/12)
Length of Visible Light 14h 43m
Length of Day
13h 49m
Waxing Crescent, 7% of the Moon is Illuminated
May 12
Waxing Crescent
May 17
First Quarter
May 24
Full
May 31
Last Quarter
Jun 8
New

Hourly Weather History & Observations

Time (MDT) Temp. Dew Point Humidity Pressure Visibility Wind Dir Wind Speed Gust Speed Precip Events Conditions
12:51 AM 55.9 °F 39.9 °F 55% 30.18 in 10.0 mi NW 5.8 mph - N/A   Clear
1:51 AM 54.0 °F 39.9 °F 59% 30.17 in 10.0 mi West 3.5 mph - N/A   Clear
2:51 AM 52.0 °F 35.1 °F 53% 30.17 in 10.0 mi NNW 3.5 mph - N/A   Clear
3:51 AM 50.0 °F 35.1 °F 57% 30.19 in 10.0 mi NE 5.8 mph - N/A   Clear
4:51 AM 51.1 °F 37.9 °F 61% 30.17 in 10.0 mi NNW 6.9 mph - N/A   Clear
5:51 AM 48.9 °F 37.0 °F 64% 30.18 in 10.0 mi NW 6.9 mph - N/A   Clear
6:51 AM 52.0 °F 36.0 °F 54% 30.19 in 10.0 mi NNW 5.8 mph - N/A   Clear
7:51 AM 57.0 °F 37.0 °F 47% 30.19 in 10.0 mi Calm Calm - 0.00 in   Clear
8:51 AM 62.1 °F 37.9 °F 41% 30.19 in 10.0 mi Calm Calm - N/A   Clear
9:51 AM 68.0 °F 39.0 °F 35% 30.18 in 10.0 mi Calm Calm - N/A   Clear
10:51 AM 71.1 °F 39.9 °F 32% 30.16 in 10.0 mi SSW 8.1 mph - N/A   Clear
11:51 AM 73.0 °F 37.0 °F 27% 30.14 in 10.0 mi South 9.2 mph - N/A   Clear
12:51 PM 75.0 °F 33.1 °F 22% 30.12 in 10.0 mi South 11.5 mph 18.4 mph N/A   Clear
1:51 PM 77.0 °F 33.1 °F 20% 30.10 in 10.0 mi SSW 9.2 mph 17.3 mph N/A   Clear
2:51 PM 80.1 °F 32.0 °F 17% 30.07 in 10.0 mi South 15.0 mph 21.9 mph N/A   Clear
3:51 PM 79.0 °F 27.0 °F 15% 30.05 in 10.0 mi SSE 12.7 mph 20.7 mph N/A   Clear
4:51 PM 80.1 °F 27.0 °F 14% 30.02 in 10.0 mi SSE 11.5 mph - N/A   Clear
5:51 PM 78.1 °F 26.1 °F 15% 30.01 in 10.0 mi SE 9.2 mph - N/A   Clear
6:51 PM 77.0 °F 26.1 °F 15% 30.01 in 10.0 mi SSE 11.5 mph - N/A   Clear
7:51 PM 73.9 °F 28.9 °F 19% 30.02 in 10.0 mi SSE 9.2 mph - N/A   Clear
8:51 PM 69.1 °F 30.9 °F 24% 30.04 in 10.0 mi South 9.2 mph - N/A   Clear
9:51 PM 66.9 °F 34.0 °F 30% 30.05 in 10.0 mi South 11.5 mph - N/A   Clear
10:51 PM 64.9 °F 34.0 °F 32% 30.06 in 10.0 mi South 11.5 mph - N/A   Clear
11:51 PM 61.0 °F 30.9 °F 32% 30.08 in 10.0 mi SSW 8.1 mph - N/A   Clear